Time,TemperatureF,DewpointF,PressureIn,WindDirection,WindDirectionDegrees,WindSpeedMPH,WindSpeedGustMPH,Humidity,HourlyPrecipIn,Conditions,Clouds,dailyrainin,SoftwareType,DateUTC
2013-08-07 00:00:00,58.1,38.0,30.05,NNE,22,0.0,1.0,47,0.00,,---,0.00,VWS V13.01,2013-08-07 06:00:00,
2013-08-07 00:30:00,56.5,37.6,30.04,NNE,22,0.0,1.0,49,0.00,,---,0.00,VWS V13.01,2013-08-07 06:30:00,
2013-08-07 01:00:00,55.7,37.4,30.05,NNE,22,0.0,1.0,50,0.00,,---,0.00,VWS V13.01,2013-08-07 07:00:00,
2013-08-07 01:30:00,54.9,35.6,30.04,NNE,22,0.0,1.0,48,0.00,,---,0.00,VWS V13.01,2013-08-07 07:30:00,
2013-08-07 02:00:00,53.5,36.8,30.04,NNE,22,0.0,1.0,53,0.00,,---,0.00,VWS V13.01,2013-08-07 08:00:00,
2013-08-07 02:30:00,53.5,36.8,30.05,NNE,22,0.0,1.0,53,0.00,,---,0.00,VWS V13.01,2013-08-07 08:30:00,
2013-08-07 03:00:00,52.8,37.1,30.04,NNE,22,0.0,2.0,55,0.00,,---,0.00,VWS V13.01,2013-08-07 09:00:00,
2013-08-07 03:30:00,52.7,37.9,30.03,NNE,22,0.0,1.0,57,0.00,,---,0.00,VWS V13.01,2013-08-07 09:30:00,
2013-08-07 04:00:00,52.4,38.1,30.03,NNE,22,0.0,2.0,58,0.00,,---,0.00,VWS V13.01,2013-08-07 10:00:00,
2013-08-07 04:30:00,52.4,37.6,30.03,ENE,68,0.0,2.0,57,0.00,,---,0.00,VWS V13.01,2013-08-07 10:30:00,
2013-08-07 05:00:00,53.6,37.4,30.03,SSW,202,1.0,4.0,54,0.00,,---,0.00,VWS V13.01,2013-08-07 11:00:00,
2013-08-07 05:30:00,53.6,38.8,30.04,SSW,202,1.0,4.0,57,0.00,,---,0.00,VWS V13.01,2013-08-07 11:30:00,
2013-08-07 06:00:00,51.9,38.0,30.03,ESE,112,0.0,3.0,59,0.00,,---,0.00,VWS V13.01,2013-08-07 12:00:00,
2013-08-07 06:30:00,51.8,38.8,30.02,SSE,158,0.0,4.0,61,0.00,,---,0.00,VWS V13.01,2013-08-07 12:30:00,
2013-08-07 07:00:00,52.8,38.5,30.03,SSE,158,0.0,4.0,58,0.00,,---,0.00,VWS V13.01,2013-08-07 13:00:00,
2013-08-07 07:30:00,56.4,40.0,30.02,East,90,2.0,6.0,54,0.00,,---,0.00,VWS V13.01,2013-08-07 13:30:00,
2013-08-07 08:00:00,60.0,41.3,30.01,SW,225,3.0,12.0,50,0.00,,---,0.00,VWS V13.01,2013-08-07 14:00:00,
2013-08-07 08:19:00,60.0,41.3,30.01,SW,225,3.0,12.0,50,0.00,,---,0.00,VWS V13.01,2013-08-07 14:19:00,
2013-08-07 08:24:00,65.6,41.3,30.02,SW,235,8.0,10.0,41,0.00,,---,0.00,VWS V13.01,2013-08-07 14:24:00,
2013-08-07 08:29:00,66.3,41.3,30.02,WSW,246,7.0,10.0,40,0.00,,---,0.00,VWS V13.01,2013-08-07 14:29:00,
2013-08-07 08:34:00,67.0,41.2,30.01,WSW,245,2.0,10.0,39,0.00,,---,0.00,VWS V13.01,2013-08-07 14:34:00,
2013-08-07 08:39:00,67.8,41.3,30.01,WSW,249,2.0,10.0,38,0.00,,---,0.00,VWS V13.01,2013-08-07 14:39:00,
2013-08-07 08:44:00,68.5,41.9,30.01,West,270,3.0,12.0,38,0.00,,---,0.00,VWS V13.01,2013-08-07 14:44:00,
2013-08-07 08:50:00,69.2,41.8,30.01,WSW,238,0.0,12.0,37,0.00,,---,0.00,VWS V13.01,2013-08-07 14:50:00,
2013-08-07 08:55:00,69.7,40.8,30.01,SW,235,8.0,12.0,35,0.00,,---,0.00,VWS V13.01,2013-08-07 14:55:00,
2013-08-07 09:00:00,70.3,41.4,30.00,WSW,249,7.0,12.0,35,0.00,,---,0.00,VWS V13.01,2013-08-07 15:00:00,
2013-08-07 09:05:00,71.0,42.0,30.01,WSW,242,6.0,7.0,35,0.00,,---,0.00,VWS V13.01,2013-08-07 15:05:00,
2013-08-07 09:10:00,71.6,41.8,30.01,WSW,240,6.0,7.0,34,0.00,,---,0.00,VWS V13.01,2013-08-07 15:10:00,
2013-08-07 09:15:00,72.1,41.4,30.01,SW,222,7.0,7.0,33,0.00,,---,0.00,VWS V13.01,2013-08-07 15:15:00,
2013-08-07 09:20:00,72.5,41.8,30.01,SW,232,3.0,7.0,33,0.00,,---,0.00,VWS V13.01,2013-08-07 15:20:00,
2013-08-07 09:25:00,73.0,42.2,30.01,SW,234,3.0,7.0,33,0.00,,---,0.00,VWS V13.01,2013-08-07 15:25:00,
2013-08-07 09:30:00,73.5,42.7,30.02,SW,219,1.0,8.0,33,0.00,,---,0.00,VWS V13.01,2013-08-07 15:30:00,
2013-08-07 09:35:00,74.1,42.4,30.01,West,260,2.0,4.0,32,0.00,,---,0.00,VWS V13.01,2013-08-07 15:35:00,
2013-08-07 09:40:00,74.6,43.6,30.01,West,280,0.0,6.0,33,0.00,,---,0.00,VWS V13.01,2013-08-07 15:40:00,
2013-08-07 09:45:00,75.2,44.2,30.02,WSW,250,1.0,6.0,33,0.00,,---,0.00,VWS V13.01,2013-08-07 15:45:00,
2013-08-07 09:50:00,75.4,45.1,30.01,SW,219,0.0,6.0,34,0.00,,---,0.00,VWS V13.01,2013-08-07 15:50:00,
2013-08-07 09:55:00,75.7,43.8,30.02,ESE,106,2.0,6.0,32,0.00,,---,0.00,VWS V13.01,2013-08-07 15:55:00,
2013-08-07 10:00:00,74.5,41.9,30.01,East,95,1.0,5.0,31,0.00,,---,0.00,VWS V13.01,2013-08-07 16:00:00,
2013-08-07 10:05:00,74.0,43.1,30.01,East,96,1.0,5.0,33,0.00,,---,0.00,VWS V13.01,2013-08-07 16:05:00,
2013-08-07 10:10:00,74.0,42.3,30.01,East,94,1.0,5.0,32,0.00,,---,0.00,VWS V13.01,2013-08-07 16:10:00,
2013-08-07 10:15:00,73.7,42.8,30.00,East,81,4.0,6.0,33,0.00,,---,0.00,VWS V13.01,2013-08-07 16:15:00,
2013-08-07 10:21:00,74.3,44.1,30.00,West,281,0.0,6.0,34,0.00,,---,0.00,VWS V13.01,2013-08-07 16:21:00,
2013-08-07 10:26:00,75.1,43.3,30.00,East,89,2.0,6.0,32,0.00,,---,0.00,VWS V13.01,2013-08-07 16:26:00,
2013-08-07 10:31:00,75.0,42.3,30.00,East,90,1.0,3.0,31,0.00,,---,0.00,VWS V13.01,2013-08-07 16:31:00,
2013-08-07 10:36:00,75.3,44.2,30.00,ENE,58,2.0,3.0,33,0.00,,---,0.00,VWS V13.01,2013-08-07 16:36:00,
2013-08-07 10:40:00,75.5,43.6,30.00,NNE,22,0.0,3.0,32,0.00,,---,0.00,VWS V13.01,2013-08-07 16:40:00,
2013-08-07 10:46:00,76.0,42.4,30.00,NE,36,0.0,3.0,30,0.00,,---,0.00,VWS V13.01,2013-08-07 16:46:00,
2013-08-07 10:51:00,75.9,43.1,30.00,East,87,3.0,5.0,31,0.00,,---,0.00,VWS V13.01,2013-08-07 16:51:00,
2013-08-07 10:56:00,75.4,43.5,30.00,East,88,0.0,5.0,32,0.00,,---,0.00,VWS V13.01,2013-08-07 16:56:00,
2013-08-07 11:01:00,75.7,44.6,29.99,East,88,1.0,1.0,33,0.00,,---,0.00,VWS V13.01,2013-08-07 17:01:00,
2013-08-07 11:06:00,76.7,43.0,30.00,East,88,0.0,1.0,30,0.00,,---,0.00,VWS V13.01,2013-08-07 17:06:00,
2013-08-07 11:11:00,77.1,45.8,30.00,East,87,1.0,1.0,33,0.00,,---,0.00,VWS V13.01,2013-08-07 17:11:00,
2013-08-07 11:16:00,77.2,44.2,30.00,NNE,21,1.0,5.0,31,0.00,,---,0.00,VWS V13.01,2013-08-07 17:16:00,
2013-08-07 11:21:00,77.2,43.4,30.00,North,0,1.0,5.0,30,0.00,,---,0.00,VWS V13.01,2013-08-07 17:21:00,
2013-08-07 11:26:00,77.6,42.0,30.00,North,0,1.0,5.0,28,0.00,,---,0.00,VWS V13.01,2013-08-07 17:26:00,
2013-08-07 11:31:00,77.6,44.6,29.99,East,84,0.0,2.0,31,0.00,,---,0.00,VWS V13.01,2013-08-07 17:31:00,
2013-08-07 11:36:00,78.0,43.2,29.99,North,2,3.0,7.0,29,0.00,,---,0.00,VWS V13.01,2013-08-07 17:36:00,
2013-08-07 11:41:00,77.9,44.0,29.99,ENE,69,1.0,7.0,30,0.00,,---,0.00,VWS V13.01,2013-08-07 17:41:00,
2013-08-07 11:46:00,77.9,45.7,29.99,East,81,2.0,8.0,32,0.00,,---,0.00,VWS V13.01,2013-08-07 17:46:00,
2013-08-07 11:52:00,78.0,43.2,29.99,ENE,78,0.0,8.0,29,0.00,,---,0.00,VWS V13.01,2013-08-07 17:52:00,
2013-08-07 11:57:00,78.5,43.6,29.99,NNE,25,1.0,8.0,29,0.00,,---,0.00,VWS V13.01,2013-08-07 17:57:00,
2013-08-07 12:02:00,78.5,41.8,29.99,North,0,1.0,5.0,27,0.00,,---,0.00,VWS V13.01,2013-08-07 18:02:00,
2013-08-07 12:07:00,78.9,42.1,29.98,North,1,0.0,5.0,27,0.00,,---,0.00,VWS V13.01,2013-08-07 18:07:00,
2013-08-07 12:12:00,78.9,42.1,29.98,NNE,14,4.0,9.0,27,0.00,,---,0.00,VWS V13.01,2013-08-07 18:12:00,
2013-08-07 12:17:00,79.0,44.1,29.98,North,5,2.0,9.0,29,0.00,,---,0.00,VWS V13.01,2013-08-07 18:17:00,
2013-08-07 12:22:00,79.7,42.8,29.98,North,0,0.0,9.0,27,0.00,,---,0.00,VWS V13.01,2013-08-07 18:22:00,
2013-08-07 12:27:00,79.7,43.8,29.97,NNE,33,3.0,9.0,28,0.00,,---,0.00,VWS V13.01,2013-08-07 18:27:00,
2013-08-07 12:32:00,79.8,40.9,29.98,North,2,5.0,9.0,25,0.00,,---,0.00,VWS V13.01,2013-08-07 18:32:00,
2013-08-07 12:37:00,80.0,43.0,29.97,North,0,0.0,9.0,27,0.00,,---,0.00,VWS V13.01,2013-08-07 18:37:00,
2013-08-07 12:42:00,80.1,43.1,29.97,North,3,0.0,9.0,27,0.00,,---,0.00,VWS V13.01,2013-08-07 18:42:00,
2013-08-07 12:47:00,79.8,41.9,29.97,NNE,15,1.0,9.0,26,0.00,,---,0.00,VWS V13.01,2013-08-07 18:47:00,
2013-08-07 12:53:00,80.1,43.1,29.97,North,0,0.0,9.0,27,0.00,,---,0.00,VWS V13.01,2013-08-07 18:53:00,
2013-08-07 12:58:00,80.4,42.4,29.97,North,8,0.0,9.0,26,0.00,,---,0.00,VWS V13.01,2013-08-07 18:58:00,
2013-08-07 13:03:00,80.5,42.5,29.97,North,10,3.0,5.0,26,0.00,,---,0.00,VWS V13.01,2013-08-07 19:03:00,
2013-08-07 13:08:00,80.6,41.6,29.96,NE,55,4.0,6.0,25,0.00,,---,0.00,VWS V13.01,2013-08-07 19:08:00,
2013-08-07 13:13:00,80.7,43.7,29.96,NE,43,3.0,6.0,27,0.00,,---,0.00,VWS V13.01,2013-08-07 19:13:00,
2013-08-07 13:18:00,81.4,44.2,29.96,North,7,5.0,10.0,27,0.00,,---,0.00,VWS V13.01,2013-08-07 19:18:00,
2013-08-07 13:23:00,81.2,44.1,29.96,North,0,0.0,10.0,27,0.00,,---,0.00,VWS V13.01,2013-08-07 19:23:00,
2013-08-07 13:28:00,81.5,44.3,29.96,North,3,6.0,10.0,27,0.00,,---,0.00,VWS V13.01,2013-08-07 19:28:00,
2013-08-07 13:33:00,82.5,44.2,29.97,North,359,1.0,12.0,26,0.00,,---,0.00,VWS V13.01,2013-08-07 19:33:00,
2013-08-07 13:38:00,83.3,43.8,29.96,North,358,6.0,12.0,25,0.00,,---,0.00,VWS V13.01,2013-08-07 19:38:00,
2013-08-07 13:43:00,83.7,43.1,29.95,North,0,2.0,12.0,24,0.00,,---,0.00,VWS V13.01,2013-08-07 19:43:00,
2013-08-07 13:48:00,83.8,43.2,29.95,North,2,5.0,15.0,24,0.00,,---,0.00,VWS V13.01,2013-08-07 19:48:00,
2013-08-07 13:53:00,84.0,43.4,29.95,NNE,21,3.0,15.0,24,0.00,,---,0.00,VWS V13.01,2013-08-07 19:53:00,
2013-08-07 13:59:00,84.2,43.5,29.95,North,349,9.0,15.0,24,0.00,,---,0.00,VWS V13.01,2013-08-07 19:59:00,
2013-08-07 14:04:00,84.5,43.8,29.96,North,351,9.0,12.0,24,0.00,,---,0.00,VWS V13.01,2013-08-07 20:04:00,
2013-08-07 14:09:00,84.6,43.9,29.96,North,354,11.0,15.0,24,0.00,,---,0.00,VWS V13.01,2013-08-07 20:09:00,
2013-08-07 14:14:00,83.8,44.3,29.96,North,6,17.0,20.0,25,0.00,,---,0.00,VWS V13.01,2013-08-07 20:14:00,
2013-08-07 14:19:00,83.7,44.2,29.95,North,351,6.0,20.0,25,0.00,,---,0.00,VWS V13.01,2013-08-07 20:19:00,
2013-08-07 14:24:00,83.7,43.1,29.94,North,354,16.0,20.0,24,0.00,,---,0.00,VWS V13.01,2013-08-07 20:24:00,
2013-08-07 14:29:00,83.6,43.0,29.94,North,3,7.0,20.0,24,0.00,,---,0.00,VWS V13.01,2013-08-07 20:29:00,
2013-08-07 14:34:00,83.6,43.0,29.95,NE,36,8.0,20.0,24,0.00,,---,0.00,VWS V13.01,2013-08-07 20:34:00,
2013-08-07 14:39:00,83.7,43.1,29.94,NE,35,7.0,20.0,24,0.00,,---,0.00,VWS V13.01,2013-08-07 20:39:00,
2013-08-07 14:44:00,83.6,43.0,29.96,NNE,14,9.0,20.0,24,0.00,,---,0.00,VWS V13.01,2013-08-07 20:44:00,
2013-08-07 14:50:00,83.6,43.0,29.95,North,355,13.0,20.0,24,0.00,,---,0.00,VWS V13.01,2013-08-07 20:50:00,
2013-08-07 14:55:00,83.7,43.1,29.95,North,356,7.0,22.0,24,0.00,,---,0.00,VWS V13.01,2013-08-07 20:55:00,
2013-08-07 15:00:00,83.7,43.1,29.96,North,8,7.0,22.0,24,0.00,,---,0.00,VWS V13.01,2013-08-07 21:00:00,
2013-08-07 15:05:00,83.5,43.0,29.95,North,357,14.0,16.0,24,0.00,,---,0.00,VWS V13.01,2013-08-07 21:05:00,
2013-08-07 15:10:00,83.2,42.7,29.96,North,357,7.0,18.0,24,0.00,,---,0.00,VWS V13.01,2013-08-07 21:10:00,
2013-08-07 15:15:00,83.2,42.7,29.95,North,9,7.0,18.0,24,0.00,,---,0.00,VWS V13.01,2013-08-07 21:15:00,
2013-08-07 15:20:00,83.4,42.9,29.94,North,356,15.0,18.0,24,0.00,,---,0.00,VWS V13.01,2013-08-07 21:20:00,
2013-08-07 15:25:00,83.2,41.6,29.94,NNE,13,10.0,19.0,23,0.00,,---,0.00,VWS V13.01,2013-08-07 21:25:00,
2013-08-07 15:30:00,83.2,41.6,29.95,NNW,339,11.0,12.0,23,0.00,,---,0.00,VWS V13.01,2013-08-07 21:30:00,
2013-08-07 15:36:00,83.1,41.5,29.95,North,357,12.0,19.0,23,0.00,,---,0.00,VWS V13.01,2013-08-07 21:36:00,
2013-08-07 15:41:00,83.0,41.4,29.95,NNW,327,8.0,19.0,23,0.00,,---,0.00,VWS V13.01,2013-08-07 21:41:00,
2013-08-07 15:46:00,83.1,41.5,29.95,North,358,6.0,19.0,23,0.00,,---,0.00,VWS V13.01,2013-08-07 21:46:00,
2013-08-07 15:51:00,83.0,41.4,29.94,North,355,6.0,19.0,23,0.00,,---,0.00,VWS V13.01,2013-08-07 21:51:00,
2013-08-07 15:56:00,83.0,41.4,29.94,North,0,7.0,19.0,23,0.00,,---,0.00,VWS V13.01,2013-08-07 21:56:00,
2013-08-07 16:01:00,83.2,41.6,29.95,NNE,14,5.0,6.0,23,0.00,,---,0.00,VWS V13.01,2013-08-07 22:01:00,
2013-08-07 16:06:00,83.4,40.6,29.94,North,1,6.0,15.0,22,0.00,,---,0.00,VWS V13.01,2013-08-07 22:06:00,
2013-08-07 16:11:00,83.2,40.4,29.94,North,0,8.0,15.0,22,0.00,,---,0.00,VWS V13.01,2013-08-07 22:11:00,
2013-08-07 16:16:00,83.3,41.7,29.94,North,358,9.0,15.0,23,0.00,,---,0.00,VWS V13.01,2013-08-07 22:16:00,
2013-08-07 16:21:00,83.4,41.8,29.94,North,353,6.0,15.0,23,0.00,,---,0.00,VWS V13.01,2013-08-07 22:21:00,
2013-08-07 16:26:00,83.3,40.5,29.94,North,353,5.0,15.0,22,0.00,,---,0.00,VWS V13.01,2013-08-07 22:26:00,
2013-08-07 16:31:00,83.4,41.8,29.95,NNE,20,5.0,10.0,23,0.00,,---,0.00,VWS V13.01,2013-08-07 22:31:00,
2013-08-07 16:36:00,83.4,40.6,29.94,NNW,345,10.0,13.0,22,0.00,,---,0.00,VWS V13.01,2013-08-07 22:36:00,
2013-08-07 16:41:00,83.3,41.7,29.94,North,0,5.0,13.0,23,0.00,,---,0.00,VWS V13.01,2013-08-07 22:41:00,
2013-08-07 16:46:00,83.2,40.4,29.94,North,358,9.0,14.0,22,0.00,,---,0.00,VWS V13.01,2013-08-07 22:46:00,
2013-08-07 16:51:00,83.1,41.5,29.93,North,1,6.0,15.0,23,0.00,,---,0.00,VWS V13.01,2013-08-07 22:51:00,
2013-08-07 16:56:00,83.2,41.6,29.93,North,2,10.0,15.0,23,0.00,,---,0.00,VWS V13.01,2013-08-07 22:56:00,
2013-08-07 17:02:00,83.1,41.5,29.93,North,0,12.0,15.0,23,0.00,,---,0.00,VWS V13.01,2013-08-07 23:02:00,
2013-08-07 17:07:00,82.8,41.3,29.93,North,0,4.0,15.0,23,0.00,,---,0.00,VWS V13.01,2013-08-07 23:07:00,
2013-08-07 17:12:00,82.3,40.8,29.94,North,357,7.0,15.0,23,0.00,,---,0.00,VWS V13.01,2013-08-07 23:12:00,
2013-08-07 17:17:00,82.2,41.8,29.94,North,349,10.0,15.0,24,0.00,,---,0.00,VWS V13.01,2013-08-07 23:17:00,
2013-08-07 17:22:00,82.7,42.3,29.94,North,10,9.0,17.0,24,0.00,,---,0.00,VWS V13.01,2013-08-07 23:22:00,
2013-08-07 17:27:00,82.4,40.9,29.95,North,9,7.0,17.0,23,0.00,,---,0.00,VWS V13.01,2013-08-07 23:27:00,
2013-08-07 17:32:00,81.7,41.4,29.94,North,1,8.0,11.0,24,0.00,,---,0.00,VWS V13.01,2013-08-07 23:32:00,
2013-08-07 17:37:00,81.8,40.4,29.94,NNE,17,9.0,12.0,23,0.00,,---,0.00,VWS V13.01,2013-08-07 23:37:00,
2013-08-07 17:42:00,81.9,41.6,29.93,North,0,4.0,12.0,24,0.00,,---,0.00,VWS V13.01,2013-08-07 23:42:00,
2013-08-07 17:47:00,81.9,41.6,29.93,North,352,8.0,12.0,24,0.00,,---,0.00,VWS V13.01,2013-08-07 23:47:00,
2013-08-07 17:53:00,81.9,40.5,29.95,North,2,4.0,14.0,23,0.00,,---,0.00,VWS V13.01,2013-08-07 23:53:00,
2013-08-07 17:58:00,81.9,40.5,29.93,North,5,15.0,15.0,23,0.00,,---,0.00,VWS V13.01,2013-08-07 23:58:00,
2013-08-07 18:03:00,81.8,41.5,29.94,North,0,14.0,17.0,24,0.00,,---,0.00,VWS V13.01,2013-08-08 00:03:00,
2013-08-07 18:08:00,81.2,41.0,29.95,North,357,10.0,17.0,24,0.00,,---,0.00,VWS V13.01,2013-08-08 00:08:00,
2013-08-07 18:13:00,80.8,40.7,29.95,NNW,345,14.0,17.0,24,0.00,,---,0.00,VWS V13.01,2013-08-08 00:13:00,
2013-08-07 18:18:00,80.5,40.4,29.95,NNE,14,13.0,17.0,24,0.00,,---,0.00,VWS V13.01,2013-08-08 00:18:00,
2013-08-07 18:23:00,80.2,40.2,29.94,North,357,6.0,17.0,24,0.00,,---,0.00,VWS V13.01,2013-08-08 00:23:00,
2013-08-07 18:28:00,80.2,40.2,29.95,North,2,8.0,17.0,24,0.00,,---,0.00,VWS V13.01,2013-08-08 00:28:00,
2013-08-07 18:33:00,80.1,40.1,29.95,North,6,7.0,16.0,24,0.00,,---,0.00,VWS V13.01,2013-08-08 00:33:00,
2013-08-07 18:39:00,80.0,40.0,29.95,NNW,347,14.0,16.0,24,0.00,,---,0.00,VWS V13.01,2013-08-08 00:39:00,
2013-08-07 18:44:00,79.7,39.8,29.95,North,351,6.0,16.0,24,0.00,,---,0.00,VWS V13.01,2013-08-08 00:44:00,
2013-08-07 18:49:00,79.6,40.7,29.94,North,3,5.0,16.0,25,0.00,,---,0.00,VWS V13.01,2013-08-08 00:49:00,
2013-08-07 18:54:00,79.2,42.4,29.95,North,6,8.0,16.0,27,0.00,,---,0.00,VWS V13.01,2013-08-08 00:54:00,
2013-08-07 18:59:00,78.1,41.4,29.95,North,0,13.0,16.0,27,0.00,,---,0.00,VWS V13.01,2013-08-08 00:59:00,
2013-08-07 19:04:00,77.5,40.9,29.95,North,8,14.0,14.0,27,0.00,,---,0.00,VWS V13.01,2013-08-08 01:04:00,
2013-08-07 19:09:00,77.0,41.4,29.95,North,353,10.0,14.0,28,0.00,,---,0.00,VWS V13.01,2013-08-08 01:09:00,
2013-08-07 19:14:00,76.6,41.1,29.96,North,4,4.0,14.0,28,0.00,,---,0.00,VWS V13.01,2013-08-08 01:14:00,
2013-08-07 19:19:00,76.5,41.0,29.95,North,7,5.0,14.0,28,0.00,,---,0.00,VWS V13.01,2013-08-08 01:19:00,
2013-08-07 19:24:00,76.3,41.7,29.94,North,358,6.0,14.0,29,0.00,,---,0.00,VWS V13.01,2013-08-08 01:24:00,
2013-08-07 19:29:00,75.9,41.4,29.94,North,359,4.0,14.0,29,0.00,,---,0.00,VWS V13.01,2013-08-08 01:29:00,
2013-08-07 19:34:00,75.4,41.8,29.95,North,358,4.0,6.0,30,0.00,,---,0.00,VWS V13.01,2013-08-08 01:34:00,
2013-08-07 19:39:00,74.9,41.4,29.95,North,0,3.0,6.0,30,0.00,,---,0.00,VWS V13.01,2013-08-08 01:39:00,
2013-08-07 19:44:00,74.6,41.2,29.96,North,357,3.0,7.0,30,0.00,,---,0.00,VWS V13.01,2013-08-08 01:44:00,
2013-08-07 19:49:00,74.3,40.9,29.95,North,0,3.0,7.0,30,0.00,,---,0.00,VWS V13.01,2013-08-08 01:49:00,
2013-08-07 19:54:00,74.1,41.6,29.95,North,0,3.0,7.0,31,0.00,,---,0.00,VWS V13.01,2013-08-08 01:54:00,
2013-08-07 20:00:00,74.0,41.5,29.96,North,0,2.0,7.0,31,0.00,,---,0.00,VWS V13.01,2013-08-08 02:00:00,
2013-08-07 20:05:00,74.0,41.5,29.97,North,0,2.0,6.0,31,0.00,,---,0.00,VWS V13.01,2013-08-08 02:05:00,
2013-08-07 20:10:00,73.9,41.4,29.96,North,0,2.0,6.0,31,0.00,,---,0.00,VWS V13.01,2013-08-08 02:10:00,
2013-08-07 20:15:00,73.7,41.2,29.96,North,353,3.0,6.0,31,0.00,,---,0.00,VWS V13.01,2013-08-08 02:15:00,
2013-08-07 20:20:00,73.5,41.0,29.96,North,357,3.0,6.0,31,0.00,,---,0.00,VWS V13.01,2013-08-08 02:20:00,
2013-08-07 20:25:00,73.1,39.8,29.97,North,357,3.0,6.0,30,0.00,,---,0.00,VWS V13.01,2013-08-08 02:25:00,
2013-08-07 20:30:00,72.7,38.6,29.96,North,358,0.0,4.0,29,0.00,,---,0.00,VWS V13.01,2013-08-08 02:30:00,
2013-08-07 20:35:00,72.5,37.6,29.97,North,0,3.0,5.0,28,0.00,,---,0.00,VWS V13.01,2013-08-08 02:35:00,
2013-08-07 20:40:00,72.2,38.2,29.97,North,0,0.0,5.0,29,0.00,,---,0.00,VWS V13.01,2013-08-08 02:40:00,
2013-08-07 20:45:00,71.9,38.0,29.98,North,0,0.0,5.0,29,0.00,,---,0.00,VWS V13.01,2013-08-08 02:45:00,
2013-08-07 20:50:00,71.4,38.4,29.98,North,0,1.0,5.0,30,0.00,,---,0.00,VWS V13.01,2013-08-08 02:50:00,
2013-08-07 20:55:00,71.0,38.9,29.99,North,0,4.0,5.0,31,0.00,,---,0.00,VWS V13.01,2013-08-08 02:55:00,
2013-08-07 21:00:00,70.8,37.9,30.00,North,0,3.0,6.0,30,0.00,,---,0.00,VWS V13.01,2013-08-08 03:00:00,
2013-08-07 21:05:00,70.6,37.7,29.98,North,0,4.0,7.0,30,0.00,,---,0.00,VWS V13.01,2013-08-08 03:05:00,
2013-08-07 21:10:00,70.3,38.3,29.99,North,0,3.0,8.0,31,0.00,,---,0.00,VWS V13.01,2013-08-08 03:10:00,
2013-08-07 21:16:00,69.9,38.7,30.00,North,0,1.0,8.0,32,0.00,,---,0.00,VWS V13.01,2013-08-08 03:16:00,
2013-08-07 21:21:00,69.5,39.2,30.00,North,352,3.0,8.0,33,0.00,,---,0.00,VWS V13.01,2013-08-08 03:21:00,
2013-08-07 21:26:00,69.2,40.4,30.01,NW,326,12.0,12.0,35,0.00,,---,0.00,VWS V13.01,2013-08-08 03:26:00,
2013-08-07 21:31:00,69.2,41.8,30.00,NNW,330,7.0,7.0,37,0.00,,---,0.00,VWS V13.01,2013-08-08 03:31:00,
2013-08-07 21:36:00,69.2,42.5,30.00,NNW,336,7.0,9.0,38,0.00,,---,0.00,VWS V13.01,2013-08-08 03:36:00,
2013-08-07 21:41:00,69.0,43.0,30.01,NNW,339,5.0,10.0,39,0.00,,---,0.00,VWS V13.01,2013-08-08 03:41:00,
2013-08-07 21:46:00,68.6,43.3,30.00,NNW,333,4.0,10.0,40,0.00,,---,0.00,VWS V13.01,2013-08-08 03:46:00,
2013-08-07 21:51:00,68.3,43.1,30.01,NNW,342,4.0,10.0,40,0.00,,---,0.00,VWS V13.01,2013-08-08 03:51:00,
2013-08-07 21:56:00,68.0,43.5,30.03,North,352,2.0,10.0,41,0.00,,---,0.00,VWS V13.01,2013-08-08 03:56:00,
2013-08-07 22:01:00,67.8,43.3,30.01,North,349,3.0,3.0,41,0.00,,---,0.00,VWS V13.01,2013-08-08 04:01:00,
2013-08-07 22:02:00,67.7,43.8,30.01,North,352,2.0,3.0,42,0.00,,---,0.00,VWS V13.01,2013-08-08 04:02:00,
2013-08-07 22:07:00,67.4,43.5,30.02,NNW,337,4.0,4.0,42,0.00,,---,0.00,VWS V13.01,2013-08-08 04:07:00,
2013-08-07 22:12:00,67.3,44.1,30.03,NW,325,7.0,12.0,43,0.00,,---,0.00,VWS V13.01,2013-08-08 04:12:00,
2013-08-07 22:17:00,67.1,43.9,30.03,NNW,343,4.0,12.0,43,0.00,,---,0.00,VWS V13.01,2013-08-08 04:17:00,
2013-08-07 22:22:00,66.8,44.2,30.03,NNW,332,5.0,12.0,44,0.00,,---,0.00,VWS V13.01,2013-08-08 04:22:00,
2013-08-07 22:27:00,66.5,43.3,30.04,North,0,3.0,12.0,43,0.00,,---,0.00,VWS V13.01,2013-08-08 04:27:00,
2013-08-07 22:33:00,66.2,43.7,30.02,North,353,3.0,4.0,44,0.00,,---,0.00,VWS V13.01,2013-08-08 04:33:00,
2013-08-07 22:38:00,66.1,43.6,30.03,NNW,348,2.0,5.0,44,0.00,,---,0.00,VWS V13.01,2013-08-08 04:38:00,
2013-08-07 22:43:00,65.9,44.0,30.02,North,351,1.0,5.0,45,0.00,,---,0.00,VWS V13.01,2013-08-08 04:43:00,
2013-08-07 22:48:00,65.7,43.8,30.03,North,350,2.0,5.0,45,0.00,,---,0.00,VWS V13.01,2013-08-08 04:48:00,
2013-08-07 22:53:00,65.4,43.5,30.03,North,349,0.0,5.0,45,0.00,,---,0.00,VWS V13.01,2013-08-08 04:53:00,
2013-08-07 22:58:00,65.2,43.3,30.03,North,349,0.0,5.0,45,0.00,,---,0.00,VWS V13.01,2013-08-08 04:58:00,
2013-08-07 23:03:00,65.1,43.8,30.03,North,349,0.0,1.0,46,0.00,,---,0.00,VWS V13.01,2013-08-08 05:03:00,
2013-08-07 23:08:00,64.9,44.2,30.03,North,349,0.0,1.0,47,0.00,,---,0.00,VWS V13.01,2013-08-08 05:08:00,
2013-08-07 23:30:00,64.6,43.4,30.03,North,0,1.0,5.0,46,0.00,,---,0.00,VWS V13.01,2013-08-08 05:30:00,